Weather reports worldwide

Advertisment
Goudhurst, United Kingdom (99126): temperature & dewpoint: 15.11.2017 13:00:00 - 21.11.2017 13:00:00 (GMT)Goudhurst, United Kingdom (99126): precipitation: 15.11.2017 13:00:00 - 21.11.2017 13:00:00 (GMT)
Date & Time tt [°C] td [°C] rr [mm]
21.11.2017 13:00:00 12,8 8,8 -
21.11.2017 12:00:00 13,0 9,1 0,0
21.11.2017 11:00:00 12,4 9,4 -
21.11.2017 10:00:00 11,8 9,2 0,0
21.11.2017 09:00:00 11,4 9,2 0,0
21.11.2017 08:00:00 11,4 9,4 0,0
21.11.2017 07:00:00 11,7 9,8 0,0
21.11.2017 06:00:00 11,7 9,9 0,0
21.11.2017 05:00:00 11,5 10,0 0,0
21.11.2017 04:00:00 11,7 10,2 0,0
21.11.2017 03:00:00 11,7 10,5 0,0
21.11.2017 02:00:00 11,7 10,5 0,0
21.11.2017 01:00:00 11,8 10,6 0,0
21.11.2017 00:00:00 11,7 10,6 0,0
20.11.2017 23:00:00 11,6 10,7 0,0
20.11.2017 22:00:00 - - 0,2
20.11.2017 21:00:00 11,5 10,6 0,0
20.11.2017 20:00:00 11,6 10,6 0,0
20.11.2017 19:00:00 11,4 10,6 0,0
20.11.2017 18:00:00 11,4 10,6 0,0
20.11.2017 17:00:00 11,1 10,6 1,0
20.11.2017 16:00:00 11,5 10,3 0,0
20.11.2017 15:00:00 11,1 10,3 0,2
20.11.2017 14:00:00 11,6 9,8 0,0
20.11.2017 13:00:00 11,7 9,4 0,0
20.11.2017 12:00:00 11,3 9,0 0,0
20.11.2017 11:00:00 11,0 9,0 -
20.11.2017 10:00:00 10,0 8,6 0,0
20.11.2017 09:00:00 9,1 8,4 0,2
20.11.2017 08:00:00 8,8 8,4 0,2
20.11.2017 07:00:00 8,7 8,4 0,6
20.11.2017 06:00:00 7,8 7,5 0,8
20.11.2017 05:00:00 7,3 6,6 0,0
20.11.2017 04:00:00 6,6 4,8 0,0
20.11.2017 03:00:00 - - 0,0
20.11.2017 02:00:00 5,1 2,9 -
20.11.2017 01:00:00 2,5 2,1 0,0
20.11.2017 00:00:00 2,2 1,8 0,0
19.11.2017 23:00:00 1,5 1,2 0,0
19.11.2017 22:00:00 0,8 0,4 0,0
19.11.2017 21:00:00 1,0 0,3 0,0
19.11.2017 20:00:00 1,1 0,5 0,0
19.11.2017 19:00:00 1,9 0,3 0,0
19.11.2017 18:00:00 3,3 1,2 0,0
19.11.2017 17:00:00 4,0 0,9 0,0
19.11.2017 16:00:00 5,2 1,3 0,0
19.11.2017 15:00:00 7,4 0,1 0,0
19.11.2017 14:00:00 7,6 -0,2 0,0
19.11.2017 13:00:00 6,9 0,6 0,0
19.11.2017 12:00:00 - - 0,0
19.11.2017 11:00:00 4,8 1,3 0,0
19.11.2017 10:00:00 3,6 2,1 0,2
19.11.2017 09:00:00 1,7 1,4 0,0
19.11.2017 08:00:00 1,1 0,8 0,0
19.11.2017 07:00:00 1,4 1,0 0,0
19.11.2017 06:00:00 1,8 1,3 0,0
19.11.2017 05:00:00 2,2 1,8 0,0
19.11.2017 04:00:00 2,8 2,5 0,0
19.11.2017 03:00:00 3,0 2,7 0,0
19.11.2017 02:00:00 3,3 2,9 -
19.11.2017 01:00:00 3,9 3,5 0,0
19.11.2017 00:00:00 5,1 4,6 0,0
18.11.2017 23:00:00 5,8 5,3 0,0
18.11.2017 22:00:00 6,1 5,7 0,0
18.11.2017 21:00:00 6,4 6,0 0,2
18.11.2017 20:00:00 6,4 6,1 0,4
18.11.2017 19:00:00 6,5 6,2 0,6
18.11.2017 18:00:00 8,3 8,0 0,8
18.11.2017 17:00:00 8,6 8,3 0,4
18.11.2017 16:00:00 8,6 8,2 0,2
18.11.2017 15:00:00 8,4 8,0 0,4
18.11.2017 14:00:00 7,9 7,5 0,8
18.11.2017 13:00:00 7,5 7,0 0,8
18.11.2017 12:00:00 7,7 5,5 0,0
18.11.2017 11:00:00 7,4 4,6 0,0
18.11.2017 10:00:00 7,2 4,6 0,0
18.11.2017 09:00:00 5,3 3,4 0,0
18.11.2017 08:00:00 4,0 1,7 0,0
18.11.2017 07:00:00 3,3 0,6 0,0
18.11.2017 06:00:00 4,3 1,1 0,0
18.11.2017 05:00:00 4,3 0,9 0,0
18.11.2017 04:00:00 3,9 0,9 0,0
18.11.2017 03:00:00 2,9 1,0 0,0
18.11.2017 02:00:00 0,9 0,7 0,0
18.11.2017 01:00:00 -0,7 -1,0 0,0
18.11.2017 00:00:00 -1,5 -1,8 -
17.11.2017 23:00:00 -1,3 -1,7 0,0
17.11.2017 22:00:00 -0,7 -1,1 0,0
17.11.2017 21:00:00 0,1 -0,4 0,0
17.11.2017 20:00:00 0,9 0,4 0,0
17.11.2017 19:00:00 0,8 0,1 0,0
17.11.2017 18:00:00 1,0 -0,3 0,0
17.11.2017 17:00:00 2,2 0,2 0,0
17.11.2017 16:00:00 5,2 0,7 0,0
17.11.2017 15:00:00 8,2 -0,7 0,0
17.11.2017 14:00:00 8,6 0,2 0,0
17.11.2017 13:00:00 8,4 0,7 0,0
17.11.2017 12:00:00 7,7 0,7 0,0
17.11.2017 11:00:00 5,6 2,7 0,0
17.11.2017 10:00:00 2,5 2,3 0,0
17.11.2017 09:00:00 0,2 0,1 0,0
17.11.2017 08:00:00 -1,3 -1,6 0,0
17.11.2017 07:00:00 -0,7 -1,0 0,0
17.11.2017 06:00:00 -0,3 -0,7 0,0
17.11.2017 05:00:00 0,5 -0,1 0,0
17.11.2017 04:00:00 1,1 0,3 0,0
17.11.2017 03:00:00 2,0 0,8 0,0
17.11.2017 02:00:00 3,8 1,7 -
17.11.2017 01:00:00 6,3 2,3 0,0
17.11.2017 00:00:00 7,0 3,0 0,0
16.11.2017 23:00:00 7,7 3,7 0,0
16.11.2017 22:00:00 8,4 3,8 0,0
16.11.2017 21:00:00 8,3 4,9 0,0
16.11.2017 20:00:00 9,1 5,4 0,0
16.11.2017 19:00:00 10,7 8,1 -
16.11.2017 18:00:00 10,6 8,9 0,0
16.11.2017 17:00:00 10,0 8,4 -
16.11.2017 16:00:00 11,3 8,8 0,0
16.11.2017 15:00:00 12,2 9,1 0,0
16.11.2017 14:00:00 12,3 9,6 0,0
16.11.2017 13:00:00 11,8 9,8 0,0
16.11.2017 12:00:00 11,4 9,9 0,0
16.11.2017 11:00:00 10,8 9,9 0,0
16.11.2017 10:00:00 10,3 9,4 0,0
16.11.2017 09:00:00 10,0 9,6 0,0
16.11.2017 08:00:00 9,6 9,4 0,0
16.11.2017 07:00:00 9,2 9,0 0,2
16.11.2017 06:00:00 9,0 8,9 0,0
16.11.2017 05:00:00 9,4 9,3 0,0
16.11.2017 04:00:00 9,6 9,5 0,0
16.11.2017 03:00:00 9,4 9,3 0,0
16.11.2017 02:00:00 8,1 7,9 0,0
16.11.2017 01:00:00 8,4 8,3 0,0
16.11.2017 00:00:00 8,3 8,1 0,0
15.11.2017 23:00:00 9,3 9,1 0,0
15.11.2017 22:00:00 10,0 9,8 0,0
15.11.2017 21:00:00 10,0 9,8 0,0
15.11.2017 20:00:00 10,0 9,7 0,0
15.11.2017 19:00:00 10,1 9,9 0,0
15.11.2017 18:00:00 10,2 9,9 0,0
15.11.2017 17:00:00 10,4 10,0 0,0
15.11.2017 16:00:00 10,9 10,3 0,0
15.11.2017 15:00:00 11,2 10,4 0,0
15.11.2017 14:00:00 11,2 10,1 0,0
15.11.2017 13:00:00 12,0 10,3 0,0

tt = temperature
td = dewpoint
rr = precipitation

Next stations